Theta_e
321 321 321 321 320 320 320 320 320 319 319 319 319 319 319 320 321 321 321 321 320 319 320 321 321 322 325 321 319 336 344 342 325 320 317 316 317 316 323 329 330 327 329 331 331 328 328
321 321 321 321 321 321 320 321 321 321 320 320 320 320 320 320 320 321 320 319 318 318 320 321 322 323 326 314 333 335 325 326 321 320 317 319 317 330 330 329 327 330 330 330 330 328 327
322 321 321 321 321 321 320 321 321 320 320 320 320 320 320 320 320 320 319 317 317 317 319 321 323 326 323 319 332 331 328 323 321 320 316 318 319 324 333 329 334 331 326 328 329 329 323
323 323 322 322 321 321 320 320 320 320 320 320 320 320 320 320 319 319 317 316 318 320 319 322 324 328 319 331 333 323 320 319 320 320 318 318 319 332 333 335 330 325 324 319 327 330 328
324 323 323 323 322 322 321 320 320 320 320 320 320 319 319 319 318 317 315 316 322 322 322 324 327 324 316 327 325 327 323 314 316 316 318 316 325 332 332 325 320 320 312 314 321 330 328
324 324 323 323 323 322 321 321 320 320 320 319 319 319 318 318 317 315 315 317 325 326 326 328 327 319 319 314 320 325 326 320 316 315 312 313 323 323 324 319 307 310 311 313 317 324 327
325 324 324 324 323 322 322 321 321 320 320 319 319 318 317 317 315 314 316 326 322 320 322 318 317 316 317 320 321 320 324 319 316 314 309 312 312 312 315 317 315 314 311 311 320 324 324
324 324 323 323 323 322 322 321 321 320 320 319 318 317 317 315 314 313 317 321 316 315 312 318 317 318 320 319 313 317 322 311 311 308 310 309 307 313 313 311 313 313 310 315 322 325 323
324 323 322 322 322 322 321 321 320 320 320 319 318 317 316 314 313 315 317 320 320 316 314 316 319 318 318 319 312 313 317 313 309 308 308 307 309 311 311 311 309 312 310 314 315 323 324
323 322 322 322 322 322 321 321 320 320 319 319 318 317 315 311 314 319 316 320 318 318 310 311 314 318 320 319 310 317 319 313 308 305 307 307 311 307 307 309 311 308 313 315 317 317 308
323 322 322 322 322 321 321 320 320 319 319 318 318 316 313 310 318 317 316 320 319 319 300 312 313 323 320 314 312 312 319 314 307 307 307 306 307 306 305 308 309 309 316 318 317 314 311
323 322 322 322 322 321 320 319 319 319 319 318 317 315 312 316 320 319 320 319 319 307 298 309 313 312 311 312 311 313 313 315 314 310 311 310 312 310 309 311 310 317 318 318 317 312 304
323 322 322 321 321 321 319 319 319 319 318 317 314 312 312 319 318 320 320 318 305 301 311 308 308 311 310 309 309 310 309 308 307 304 305 308 308 311 317 314 317 318 312 304 303 303 302
322 321 320 320 320 320 319 319 319 318 317 315 311 309 314 318 321 321 318 311 299 304 308 312 310 310 307 310 310 309 308 306 310 309 307 304 302 309 316 312 310 311 311 304 295 299 303
319 319 319 319 319 319 319 319 318 317 316 313 309 323 319 322 320 320 311 302 303 306 310 310 309 307 307 309 309 308 307 306 309 310 305 304 304 311 311 312 313 310 307 312 304 305 301
319 319 319 319 319 319 319 319 318 317 315 312 317 318 318 318 319 315 306 299 305 309 311 310 306 309 306 307 306 307 306 310 308 311 314 310 304 310 310 312 312 311 313 304 305 297 297
318 318 318 318 317 317 318 318 318 317 313 311 317 313 315 319 317 310 301 303 306 310 312 309 308 306 308 308 308 307 308 310 312 311 313 312 310 308 310 308 308 308 307 307 308 306 300
318 317 317 316 316 317 318 318 317 314 310 313 315 310 316 318 306 308 303 305 302 308 312 310 308 307 307 307 308 308 308 310 314 313 308 313 311 306 307 311 312 312 310 310 304 304 305
317 317 315 315 315 315 316 316 315 313 311 318 313 314 319 316 302 302 305 304 306 306 308 307 306 307 309 308 305 309 310 313 314 313 312 314 308 303 304 308 311 309 311 312 311 310 305
316 316 316 315 315 315 315 315 314 313 311 316 313 308 313 314 311 306 304 303 302 307 306 307 306 309 308 307 310 309 310 311 313 314 317 317 311 308 303 306 309 306 308 311 310 305 306
315 315 315 316 316 316 315 315 314 314 311 316 315 310 311 311 309 308 309 307 304 304 309 312 308 307 306 305 307 307 311 311 313 312 313 314 308 310 309 307 307 306 305 308 308 309 306
314 314 315 315 316 316 316 315 315 315 311 317 311 310 316 310 310 308 304 306 305 307 308 307 308 308 308 306 308 307 311 313 311 313 312 314 309 310 306 306 306 304 306 307 307 308 308
313 314 315 316 317 316 316 316 315 315 310 315 317 317 312 307 309 308 307 307 307 308 309 310 310 310 309 310 313 315 314 315 315 313 312 312 310 308 303 306 305 302 306 306 307 309 309
313 314 314 316 317 317 317 317 317 316 312 309 310 310 308 305 308 308 306 307 308 308 306 308 309 309 315 319 319 317 314 313 314 314 315 312 312 309 303 306 296 307 313 310 309 311 313
314 314 315 316 317 318 318 318 319 317 314 311 310 307 303 301 309 308 308 308 309 310 307 306 308 313 316 316 311 307 307 308 310 312 312 315 312 306 302 301 305 306 309 311 310 310 316
315 315 316 317 317 318 319 319 320 319 314 312 311 311 307 302 303 309 309 309 307 306 306 306 311 316 315 310 310 303 301 305 304 306 312 313 315 308 305 300 298 307 311 317 316 305 316
315 316 317 317 318 318 318 319 320 320 314 313 311 313 308 301 307 306 307 306 310 307 306 306 308 309 316 307 305 304 303 309 303 303 305 307 308 305 305 302 305 311 312 319 303 308 318
315 317 317 317 316 317 318 319 319 320 315 314 313 313 308 303 305 309 312 310 307 308 304 307 304 311 311 308 306 307 305 308 307 309 308 307 305 304 306 303 300 315 314 309 314 319 318
315 315 315 315 316 316 317 318 319 318 316 314 309 314 313 305 305 312 314 316 316 314 309 311 307 307 311 311 312 311 307 311 309 304 312 306 310 307 309 308 318 319 318 321 320 319 320
Wind_Speed
15 15 15 14 13 14 14 14 14 14 14 14 14 15 15 16 16 15 15 14 13 11 9 7 5 5 7 8 7 6 8 8 9 6 6 5 6 4 3 5 7 9 9 10 7 7 7
14 15 15 15 14 15 15 15 15 15 16 16 16 16 16 17 17 17 16 15 13 10 8 6 5 5 7 4 3 3 9 9 7 8 5 5 5 4 5 4 6 9 10 12 8 8 3
14 15 15 15 15 15 16 16 16 16 17 17 17 17 17 17 18 17 17 16 13 9 8 6 5 6 7 8 1 5 7 8 4 6 5 1 4 6 1 9 10 13 11 9 7 8 3
12 13 13 13 14 14 15 16 16 16 16 17 17 18 18 18 18 18 17 15 13 6 6 6 6 6 4 4 6 6 5 6 5 4 3 2 3 1 3 10 6 4 2 4 9 7 9
11 12 12 13 13 14 14 15 16 16 16 17 18 18 18 18 18 17 15 13 3 6 5 7 7 6 8 4 8 8 6 7 8 6 2 3 5 1 7 10 10 5 7 4 8 8 6
11 11 12 13 13 14 14 15 16 17 17 18 18 19 19 19 18 16 13 5 6 10 6 6 5 7 7 5 9 8 6 7 7 9 6 7 7 9 9 11 6 8 6 3 1 9 9
11 12 12 12 13 13 14 14 16 17 18 18 19 20 20 20 17 15 7 6 7 7 9 7 3 4 6 10 9 7 9 8 8 12 11 9 10 12 11 2 5 5 5 4 4 4 6
11 12 12 12 13 13 14 14 15 16 18 19 20 20 22 23 21 9 7 5 6 6 7 5 6 5 3 6 10 9 10 10 11 14 6 9 13 7 3 6 8 9 5 8 4 5 6
12 12 13 13 14 14 14 15 16 16 17 19 20 20 21 23 20 5 5 3 3 7 8 7 6 7 11 11 9 14 14 5 11 12 14 15 3 4 11 11 10 9 4 2 5 7 6
12 13 13 13 13 14 16 16 16 17 18 19 20 19 19 28 5 6 2 4 7 4 7 11 11 8 9 8 6 10 13 7 7 11 10 10 10 8 13 15 11 11 4 3 6 9 3
12 13 14 13 13 12 15 17 17 17 19 20 20 19 16 10 10 5 5 6 5 5 7 11 10 8 10 7 16 10 8 7 8 10 9 7 10 13 13 11 3 3 3 5 4 3 5
12 12 14 15 14 13 13 15 16 17 20 22 21 18 17 5 5 6 7 7 6 9 5 10 10 12 13 9 8 11 11 9 3 6 10 9 2 5 6 3 7 4 7 6 7 5 11
13 13 14 14 15 14 14 15 16 17 19 21 22 20 10 4 3 6 6 6 8 9 5 10 12 12 15 12 10 12 13 15 10 10 11 8 10 6 9 10 7 11 13 9 9 8 2
12 12 14 14 13 15 14 15 16 16 18 21 23 23 7 6 5 7 7 9 11 3 9 4 5 11 12 11 10 13 13 14 11 9 6 11 13 14 13 10 6 12 12 10 4 5 1
13 13 14 14 13 14 14 14 15 16 17 20 26 4 4 3 3 5 9 13 6 10 4 8 9 11 14 10 6 12 16 15 14 14 9 8 4 6 4 5 8 9 10 6 8 5 8
12 12 13 13 13 13 13 14 16 17 18 19 9 6 0 5 5 7 10 16 11 4 3 6 13 12 15 16 13 11 14 13 12 11 13 3 6 7 7 8 4 9 3 8 8 4 5
11 12 13 13 14 15 15 14 15 16 18 19 6 6 6 5 4 7 11 16 13 7 6 6 8 6 11 9 15 15 12 7 15 12 9 7 8 10 9 9 7 8 10 7 9 6 8
11 11 11 12 13 14 16 14 14 13 19 8 5 5 4 4 7 5 12 9 2 10 10 7 5 6 8 9 12 13 14 9 11 12 13 13 8 10 5 5 4 7 10 6 9 10 6
12 12 11 13 13 14 15 14 14 10 10 7 6 4 4 5 7 9 9 10 9 8 11 10 8 7 5 8 8 11 11 5 9 13 11 10 8 7 10 11 8 9 7 12 9 10 10
12 13 13 12 12 11 12 13 13 11 6 6 6 4 5 6 3 7 6 11 13 9 14 9 9 8 8 10 8 7 9 6 9 11 5 8 10 10 3 5 5 5 9 11 15 11 9
14 14 15 13 13 11 11 10 11 11 6 5 4 1 5 1 6 5 6 2 10 9 10 8 9 14 13 11 11 9 9 8 9 8 8 10 12 8 1 1 5 9 7 11 13 13 10
14 14 14 15 14 11 9 10 9 9 4 5 6 5 2 6 6 7 6 9 11 8 4 9 9 3 14 12 11 9 12 11 10 12 12 9 6 8 7 4 6 9 10 9 10 8 9
14 15 14 15 13 9 9 9 8 5 1 4 2 3 6 2 6 7 7 7 8 2 5 7 6 6 8 10 7 12 11 11 4 14 14 13 7 9 12 8 6 12 14 13 13 12 11
15 15 17 14 13 9 9 10 10 1 6 1 2 4 6 9 5 7 4 4 7 4 6 3 8 9 5 8 14 11 12 13 10 8 11 12 11 9 7 8 14 1 1 5 9 11 9
14 15 16 15 13 11 10 10 9 4 9 2 0 2 2 6 10 9 11 11 10 9 11 11 9 14 12 11 8 7 8 9 12 7 11 11 12 7 7 12 4 6 7 9 10 10 8
14 15 16 15 12 10 9 9 10 7 12 2 3 1 1 2 6 12 10 9 9 7 7 7 4 7 8 8 9 12 15 13 11 11 7 11 12 10 10 12 13 6 6 7 2 10 9
15 16 14 11 10 10 11 11 8 5 15 4 1 3 1 2 7 6 5 7 1 3 5 1 5 8 8 9 11 12 14 13 17 18 11 13 13 15 11 10 8 3 6 9 9 4 8
15 13 7 6 7 8 9 8 7 1 14 5 2 5 2 3 7 6 11 10 6 5 5 5 3 6 8 10 11 9 11 11 17 18 18 15 12 12 14 13 15 11 11 14 4 2 6
14 8 7 7 8 8 8 7 7 4 13 6 1 2 3 2 6 5 13 16 16 13 6 4 5 5 5 6 4 5 5 3 14 10 4 15 13 11 10 12 3 16 13 14 3 5 6
Wind_Direction
27 26 26 21 15 12 9 5 3 355 353 348 343 340 334 331 329 327 325 324 320 311 305 293 281 284 256 209 83 88 133 153 185 218 241 233 265 312 34 99 88 89 94 102 129 139 99
22 17 16 11 6 5 359 357 354 350 347 344 340 335 330 329 328 327 325 324 317 303 290 274 260 271 251 193 60 128 171 177 216 227 210 243 350 358 74 64 26 105 112 120 126 126 79
13 15 14 8 3 2 357 355 352 349 344 341 337 332 329 327 328 326 326 321 311 291 270 252 241 261 251 62 131 150 178 208 199 247 215 208 332 279 124 105 121 128 126 125 141 147 115
11 11 7 3 359 355 351 350 349 344 339 336 334 331 329 328 327 327 325 319 308 270 221 221 225 251 55 109 131 176 175 164 191 193 298 5 281 184 309 121 150 134 181 146 159 165 144
3 3 360 359 357 352 347 346 346 341 337 334 332 331 329 329 327 327 323 314 348 140 163 184 228 258 111 139 200 179 205 158 161 179 194 291 232 313 170 203 181 192 72 65 160 196 149
359 356 354 353 351 349 346 344 343 341 337 335 333 331 331 331 329 329 319 282 137 162 178 222 263 234 163 135 139 154 173 161 168 160 173 208 217 209 217 237 358 52 52 60 15 171 212
350 349 348 346 345 342 342 343 341 338 336 334 332 330 331 331 329 326 279 200 208 175 201 305 44 341 134 118 153 174 170 183 174 194 195 201 226 217 205 308 12 329 341 24 86 139 211
341 340 339 339 339 337 336 337 336 336 335 333 333 331 330 331 328 313 261 289 52 11 290 206 249 246 194 183 172 153 179 194 196 198 193 193 232 226 322 291 273 282 304 83 104 161 242
336 335 335 336 336 335 334 333 332 333 333 332 330 330 330 328 325 254 312 61 100 322 257 156 180 184 176 201 189 166 200 183 204 210 210 243 121 279 238 242 251 240 309 113 43 171 236
330 330 331 332 334 336 337 333 331 332 332 331 328 329 332 324 288 350 205 118 305 255 261 140 186 158 167 209 155 166 208 204 196 218 211 242 244 231 242 239 245 270 70 183 157 223 82
325 328 327 325 325 327 338 332 331 328 331 329 325 326 328 325 319 265 53 309 305 232 260 136 132 123 157 213 130 175 186 201 193 172 216 129 200 219 227 229 216 3 154 209 244 265 274
321 324 326 322 318 320 327 326 321 320 329 326 321 322 327 194 232 292 302 296 231 230 231 156 146 179 180 186 170 138 192 227 330 235 223 277 104 226 233 193 222 128 160 187 221 271 240
318 321 321 323 318 315 319 321 319 319 317 323 319 317 299 294 352 333 301 220 227 245 132 165 181 179 202 173 162 182 189 200 213 197 193 176 189 145 175 133 151 208 207 216 212 198 317
322 323 320 314 314 313 316 317 319 318 317 317 317 313 159 276 299 311 239 218 232 261 210 103 194 194 200 180 208 194 196 208 212 261 185 198 167 172 188 252 198 220 266 272 250 264 192
326 317 312 315 317 317 318 319 321 319 318 320 310 290 239 155 286 223 223 216 217 228 221 202 172 209 198 196 242 200 214 211 203 208 248 192 140 137 199 184 245 144 226 336 298 200 257
314 327 331 332 332 330 327 325 324 324 323 327 316 297 326 327 205 212 224 233 238 257 249 222 227 205 207 193 198 205 181 212 209 209 243 168 152 189 131 171 164 289 57 212 215 258 263
330 329 329 330 331 332 326 331 329 328 325 321 268 285 90 84 211 205 219 228 245 233 244 228 235 229 242 196 209 195 190 183 216 177 209 246 261 148 175 211 185 174 211 233 309 332 309
322 324 326 330 334 331 329 334 331 333 327 304 294 262 132 289 218 204 230 211 301 247 204 245 275 269 243 200 213 222 228 226 179 179 200 213 254 176 173 98 282 274 289 236 238 186 232
324 323 332 332 333 335 331 331 331 341 3 319 296 286 145 258 236 209 195 234 242 236 220 217 235 237 203 222 221 212 216 77 190 197 197 183 238 187 186 174 182 231 198 260 276 292 277
326 324 324 324 326 330 330 328 330 334 346 297 281 265 166 211 289 276 227 227 226 217 254 243 255 246 220 228 219 209 216 158 187 225 351 211 242 246 280 58 1 192 227 243 255 250 250
325 325 323 317 318 320 326 324 326 331 334 286 234 33 357 214 187 258 247 303 227 210 226 208 217 241 229 236 216 216 211 164 188 152 200 238 229 232 299 6 275 282 246 227 238 260 290
324 326 320 316 316 316 322 319 321 329 321 262 303 318 243 284 259 252 184 225 247 217 264 199 239 216 229 239 240 217 213 209 183 186 194 217 206 221 208 205 238 247 237 238 236 252 249
326 316 307 307 309 303 305 303 311 344 54 306 19 258 278 233 251 248 241 237 229 228 240 298 316 289 232 248 304 290 295 301 256 192 193 199 172 210 239 187 214 239 236 238 253 254 260
319 319 314 311 317 308 298 297 301 295 188 334 334 316 286 268 243 267 284 247 240 217 264 276 320 284 19 324 296 246 245 238 237 226 196 205 202 213 243 178 227 35 58 281 277 262 265
315 309 306 312 312 305 301 296 299 289 181 194 312 270 273 270 289 279 258 261 263 258 258 264 263 282 300 291 264 217 201 194 204 216 208 197 198 201 205 221 224 215 204 219 229 250 210
314 310 306 304 306 304 303 297 292 272 168 177 204 147 292 295 241 298 279 281 279 253 244 262 302 285 274 265 240 232 211 201 183 171 205 207 223 216 201 244 238 265 188 204 274 256 209
316 311 302 300 314 315 308 303 304 268 170 172 155 150 139 231 285 285 266 316 310 277 282 298 7 288 227 241 242 229 236 217 193 198 176 187 210 216 197 231 236 128 176 166 223 45 153
324 324 349 345 326 324 334 332 335 314 165 167 119 177 180 221 276 276 288 252 263 255 273 31 312 227 255 243 241 224 240 202 228 202 189 183 196 209 228 218 238 147 166 203 218 116 192
324 333 351 348 348 344 336 331 313 263 175 164 187 179 173 230 281 306 280 278 277 281 297 246 267 298 299 276 250 301 226 221 216 180 240 210 207 207 215 214 115 174 204 211 224 212 191